EN

Hourly Weather Lahaur

Today, 1 August, Sunday

Time Temperature Precipitation Wind Pressure Humidity
00:00 +33°C° 0 mm 1 mps 731 mmHg 65%
01:00 +32°C° 0 mm 1 mps 731 mmHg 66%
02:00 +32°C° 0 mm 1 mps 730 mmHg 68%
03:00 +30°C° 0 mm 0 mps 730 mmHg 68%
04:00 +30°C° 0 mm 0 mps 730 mmHg 69%
05:00 +29°C° 0 mm 0 mps 729 mmHg 70%
06:00 +32°C° 0 mm 1 mps 730 mmHg 66%
07:00 +33°C° 0 mm 1 mps 730 mmHg 63%
08:00 +34°C° 0 mm 1 mps 730 mmHg 59%
09:00 +36°C° 0 mm 1 mps 730 mmHg 54%
10:00 +37°C° 0 mm 1 mps 730 mmHg 49%
11:00 +39°C° 0 mm 1 mps 730 mmHg 44%
12:00 +40°C° 0 mm 1 mps 729 mmHg 41%
13:00 +41°C° 0 mm 2 mps 729 mmHg 39%
14:00 +41°C° 0 mm 2 mps 728 mmHg 36%
15:00 +41°C° 0 mm 2 mps 728 mmHg 38%
16:00 +40°C° 0 mm 2 mps 728 mmHg 41%
17:00 +40°C° 0 mm 2 mps 728 mmHg 43%
18:00 +39°C° 0 mm 3 mps 728 mmHg 47%
19:00 +37°C° 0 mm 3 mps 728 mmHg 52%
20:00 +36°C° 0 mm 4 mps 728 mmHg 56%
21:00 +36°C° 0 mm 3 mps 728 mmHg 58%
22:00 +35°C° 0 mm 3 mps 729 mmHg 59%
23:00 +35°C° 0 mm 3 mps 729 mmHg 60%

Tomorrow, 2 August, Monday

Time Temperature Precipitation Wind Pressure Humidity
00:00 +35°C° 0 mm 3 mps 729 mmHg 61%
01:00 +34°C° 0 mm 3 mps 728 mmHg 62%
02:00 +34°C° 0 mm 3 mps 728 mmHg 63%
03:00 +34°C° 0 mm 2 mps 728 mmHg 64%
04:00 +34°C° 0 mm 2 mps 728 mmHg 65%
05:00 +32°C° 0 mm 2 mps 728 mmHg 66%
06:00 +34°C° 0 mm 2 mps 729 mmHg 64%
07:00 +35°C° 0 mm 3 mps 729 mmHg 62%
08:00 +35°C° 0 mm 3 mps 730 mmHg 60%
09:00 +37°C° 0 mm 3 mps 730 mmHg 55%
10:00 +38°C° 0 mm 3 mps 730 mmHg 50%
11:00 +40°C° 0 mm 3 mps 730 mmHg 45%
12:00 +40°C° 0 mm 3 mps 730 mmHg 44%
13:00 +42°C° 0 mm 3 mps 729 mmHg 42%
14:00 +42°C° 0 mm 3 mps 729 mmHg 40%
15:00 +38°C° 2.6 mm 4 mps 729 mmHg 52%
16:00 +35°C° 2.6 mm 4 mps 729 mmHg 65%
17:00 +33°C° 2.6 mm 5 mps 729 mmHg 77%
18:00 +32°C° 6 mm 5 mps 729 mmHg 75%
19:00 +30°C° 6 mm 4 mps 729 mmHg 74%
20:00 +29°C° 6 mm 4 mps 730 mmHg 72%
21:00 +29°C° 0.1 mm 4 mps 730 mmHg 75%
22:00 +29°C° 0.1 mm 3 mps 730 mmHg 77%
23:00 +29°C° 0.1 mm 3 mps 731 mmHg 80%

Day after tomorrow, 3 August, Tuesday

Time Temperature Precipitation Wind Pressure Humidity
00:00 +29°C° 0 mm 2 mps 731 mmHg 80%
01:00 +29°C° 0 mm 2 mps 731 mmHg 80%
02:00 +29°C° 0 mm 2 mps 730 mmHg 80%
03:00 +29°C° 0.1 mm 2 mps 731 mmHg 79%
04:00 +29°C° 0.1 mm 2 mps 731 mmHg 78%
05:00 +29°C° 0.1 mm 1 mps 731 mmHg 77%
06:00 +30°C° 0 mm 2 mps 731 mmHg 73%
07:00 +31°C° 0 mm 2 mps 731 mmHg 68%
08:00 +32°C° 0 mm 2 mps 732 mmHg 64%
09:00 +35°C° 0 mm 2 mps 732 mmHg 59%
10:00 +36°C° 0 mm 2 mps 732 mmHg 53%
11:00 +38°C° 0 mm 2 mps 732 mmHg 48%
12:00 +39°C° 0 mm 1 mps 731 mmHg 45%
13:00 +40°C° 0 mm 1 mps 731 mmHg 42%
14:00 +38°C° 0 mm 0 mps 730 mmHg 39%
15:00 +40°C° 0 mm 1 mps 730 mmHg 41%
16:00 +40°C° 0 mm 1 mps 730 mmHg 43%
17:00 +39°C° 0 mm 2 mps 730 mmHg 45%
18:00 +38°C° 0 mm 2 mps 730 mmHg 49%
19:00 +37°C° 0 mm 2 mps 730 mmHg 52%
20:00 +36°C° 0 mm 3 mps 730 mmHg 56%
21:00 +36°C° 0 mm 3 mps 731 mmHg 59%
22:00 +35°C° 0 mm 3 mps 731 mmHg 61%
23:00 +35°C° 0 mm 3 mps 731 mmHg 63%

4 August, Wednesday

Time Temperature Precipitation Wind Pressure Humidity
00:00 +34°C° 0 mm 3 mps 731 mmHg 65%
01:00 +34°C° 0 mm 3 mps 731 mmHg 66%
02:00 +34°C° 0 mm 2 mps 731 mmHg 68%
03:00 +33°C° 0.1 mm 3 mps 731 mmHg 69%
04:00 +33°C° 0.1 mm 3 mps 731 mmHg 70%
05:00 +33°C° 0.1 mm 3 mps 731 mmHg 71%
06:00 +32°C° 0.1 mm 2 mps 731 mmHg 70%
07:00 +34°C° 0.1 mm 2 mps 731 mmHg 69%
08:00 +34°C° 0.1 mm 2 mps 732 mmHg 68%
09:00 +36°C° 0 mm 2 mps 732 mmHg 61%
10:00 +37°C° 0 mm 2 mps 732 mmHg 54%
11:00 +39°C° 0 mm 2 mps 732 mmHg 47%
12:00 +40°C° 0 mm 2 mps 731 mmHg 44%
13:00 +41°C° 0 mm 1 mps 731 mmHg 41%
14:00 +42°C° 0 mm 1 mps 730 mmHg 38%
15:00 +42°C° 0 mm 1 mps 730 mmHg 39%
16:00 +41°C° 0 mm 2 mps 729 mmHg 40%
17:00 +41°C° 0 mm 2 mps 729 mmHg 41%
18:00 +40°C° 0 mm 3 mps 729 mmHg 46%
19:00 +38°C° 0 mm 3 mps 729 mmHg 51%
20:00 +37°C° 0 mm 4 mps 729 mmHg 56%
21:00 +36°C° 0 mm 4 mps 730 mmHg 57%
22:00 +36°C° 0 mm 4 mps 730 mmHg 58%
23:00 +35°C° 0 mm 4 mps 730 mmHg 60%

5 August, Thursday

Time Temperature Precipitation Wind Pressure Humidity
00:00 +35°C° 0 mm 4 mps 730 mmHg 60%
01:00 +35°C° 0 mm 4 mps 729 mmHg 60%
02:00 +35°C° 0 mm 4 mps 729 mmHg 60%
03:00 +35°C° 0 mm 4 mps 729 mmHg 62%
04:00 +34°C° 0 mm 4 mps 729 mmHg 65%
05:00 +34°C° 0 mm 4 mps 729 mmHg 67%
06:00 +34°C° 0 mm 4 mps 730 mmHg 65%
07:00 +35°C° 0 mm 4 mps 730 mmHg 63%
08:00 +35°C° 0 mm 5 mps 730 mmHg 61%
09:00 +37°C° 0 mm 4 mps 731 mmHg 54%
10:00 +39°C° 0 mm 3 mps 731 mmHg 47%
11:00 +41°C° 0 mm 2 mps 731 mmHg 40%
12:00 +42°C° 0 mm 2 mps 730 mmHg 37%
13:00 +43°C° 0 mm 1 mps 730 mmHg 34%
14:00 +44°C° 0 mm 1 mps 729 mmHg 32%
15:00 +43°C° 0 mm 2 mps 729 mmHg 35%
16:00 +42°C° 0 mm 2 mps 729 mmHg 37%
17:00 +42°C° 0 mm 3 mps 728 mmHg 40%
18:00 +41°C° 0 mm 4 mps 729 mmHg 45%
19:00 +38°C° 0 mm 4 mps 729 mmHg 50%
20:00 +37°C° 0 mm 5 mps 729 mmHg 55%
21:00 +36°C° 0 mm 5 mps 729 mmHg 59%
22:00 +35°C° 0 mm 5 mps 730 mmHg 63%
23:00 +34°C° 0 mm 5 mps 730 mmHg 67%

6 August, Friday

Time Temperature Precipitation Wind Pressure Humidity
00:00 +34°C° 0 mm 5 mps 730 mmHg 69%
01:00 +33°C° 0 mm 5 mps 730 mmHg 71%
02:00 +33°C° 0 mm 5 mps 729 mmHg 73%
03:00 +32°C° 0 mm 4 mps 729 mmHg 74%
04:00 +32°C° 0 mm 4 mps 729 mmHg 76%
05:00 +30°C° 0 mm 4 mps 729 mmHg 78%
06:00 +32°C° 0 mm 4 mps 730 mmHg 74%
07:00 +33°C° 0 mm 4 mps 730 mmHg 70%
08:00 +34°C° 0 mm 4 mps 731 mmHg 66%
09:00 +36°C° 0 mm 3 mps 731 mmHg 58%
10:00 +38°C° 0 mm 3 mps 731 mmHg 51%
11:00 +40°C° 0 mm 3 mps 731 mmHg 44%
12:00 +41°C° 0 mm 2 mps 730 mmHg 40%
13:00 +42°C° 0 mm 2 mps 730 mmHg 37%
14:00 +43°C° 0 mm 2 mps 729 mmHg 34%
15:00 +43°C° 0 mm 2 mps 729 mmHg 34%
16:00 +43°C° 0 mm 3 mps 729 mmHg 34%
17:00 +43°C° 0 mm 3 mps 728 mmHg 34%
18:00 +42°C° 0 mm 4 mps 729 mmHg 41%
19:00 +40°C° 0 mm 4 mps 729 mmHg 47%
20:00 +37°C° 0 mm 5 mps 729 mmHg 54%
21:00 +36°C° 0 mm 5 mps 729 mmHg 57%
22:00 +35°C° 0 mm 5 mps 730 mmHg 61%
23:00 +35°C° 0 mm 4 mps 730 mmHg 64%
Show more